Date,TemperatureHighF,TemperatureAvgF,TemperatureLowF,DewpointHighF,DewpointAvgF,DewpointLowF,HumidityHigh,HumidityAvg,HumidityLow,PressureMaxIn,PressureMinIn,WindSpeedMaxMPH,WindSpeedAvgMPH,GustSpeedMaxMPH,PrecipitationSumIn
2014-1-1,25.2,14.0,0.1,9.1,2.2,-10.3,73,59,43,30.17,29.85,13,4,18,0.00
2014-1-2,41.2,-3.8,-8.5,40.9,-11.5,-15.9,99,64,55,30.17,29.67,8,4,12,0.00
2014-1-3,12.2,-5.5,-13.2,2.0,-12.9,-20.7,69,65,54,30.15,29.68,8,4,15,0.00
2014-1-4,18.7,4.4,-13.9,4.5,-6.5,-20.5,67,58,43,30.15,29.88,14,7,22,0.00
2014-1-5,34.7,20.9,14.2,30.1,11.7,3.8,99,68,52,29.98,29.44,12,5,15,0.00
2014-1-6,49.5,35.1,18.3,49.2,29.6,-0.1,99,82,44,29.45,28.94,13,4,23,0.77
2014-1-7,27.5,9.6,3.9,2.2,-6.0,-12.1,59,47,33,30.12,29.27,17,6,30,24.14
2014-1-8,19.8,10.9,4.1,4.0,-1.7,-7.6,64,55,46,30.13,29.85,17,7,24,0.00
2014-1-9,39.7,19.8,11.1,17.4,7.4,2.7,75,59,32,30.30,30.10,8,3,12,0.00
2014-1-10,30.9,23.7,13.8,28.1,19.5,7.4,92,84,72,30.24,29.90,11,4,13,0.00
2014-1-11,50.9,40.6,30.2,50.6,40.0,27.9,99,98,85,29.90,28.86,13,4,19,0.56
2014-1-12,46.8,40.3,35.4,42.3,33.8,28.1,86,78,69,29.67,28.97,14,4,23,24.70
2014-1-13,47.1,38.3,29.7,39.6,32.3,26.8,90,79,66,29.74,29.47,12,5,17,0.00
2014-1-14,43.9,40.1,34.2,41.1,39.5,33.7,99,98,83,29.52,29.39,8,3,11,0.50
2014-1-15,48.0,36.9,28.9,40.6,34.9,28.7,99,93,75,29.66,29.51,11,2,14,0.05
2014-1-16,34.5,29.9,25.3,33.4,29.3,24.9,99,98,91,29.70,29.62,4,0,4,0.04
2014-1-17,39.4,29.2,23.5,34.3,27.4,23.3,99,93,77,29.65,29.58,10,2,15,0.07
2014-1-18,50.2,29.0,16.5,38.5,26.5,16.1,99,91,63,29.62,29.37,3,0,4,0.01
2014-1-19,30.6,27.5,24.3,30.3,23.4,17.8,99,85,67,30.12,29.17,16,6,21,25.37
2014-1-20,30.6,17.9,1.6,27.9,13.9,-3.9,93,84,73,29.71,29.16,12,3,15,0.00
2014-1-21,9.0,-0.3,-7.2,-3.6,-9.8,-14.8,75,61,43,29.87,29.70,5,2,10,0.00
2014-1-22,9.1,-4.0,-10.1,-7.7,-13.3,-18.6,70,59,44,29.78,29.60,8,3,13,0.00
2014-1-23,21.0,1.1,-10.3,3.1,-9.5,-16.6,70,58,36,29.93,29.72,5,2,8,0.00
2014-1-24,17.4,6.5,-6.9,0.3,-7.1,-14.1,66,52,29,30.00,29.53,14,4,27,0.00
2014-1-25,19.8,17.6,14.2,18.3,10.5,-0.2,94,75,51,29.54,29.02,21,7,31,0.01
2014-1-26,21.0,12.7,1.9,15.6,-3.6,-13.8,88,48,27,29.48,29.04,13,5,20,0.00
2014-1-27,33.6,20.6,6.4,27.4,8.6,-8.3,81,61,34,29.73,29.06,17,5,29,0.07
2014-1-28,24.3,9.7,2.3,1.0,-5.4,-8.7,65,49,31,29.99,29.73,12,4,18,0.00
2014-1-29,24.3,10.1,-1.1,2.2,-5.5,-11.9,64,48,27,29.91,29.64,14,5,17,0.00
2014-1-30,27.1,16.7,6.3,8.5,3.4,-2.5,68,56,43,30.08,29.71,14,6,19,0.00
2014-1-31,33.6,27.4,21.6,23.3,14.6,7.5,72,58,49,29.89,29.65,15,6,21,0.00
2014-2-1,39.2,31.2,22.5,34.2,25.1,16.7,99,79,62,30.01,29.63,12,4,15,0.05
2014-2-2,42.4,36.1,30.9,38.1,33.4,26.7,99,90,82,29.86,29.54,8,2,14,0.03
2014-2-3,30.9,24.7,18.3,26.7,18.4,11.4,90,77,64,30.04,29.85,7,2,10,0.00
2014-2-4,38.3,24.7,15.4,21.9,14.9,10.1,81,67,43,30.19,30.04,6,1,8,0.00
2014-2-5,24.3,19.2,13.3,20.7,16.9,11.2,97,90,78,30.04,29.49,8,3,34,25.54
2014-2-6,30.6,14.2,4.5,22.2,7.1,1.2,92,74,46,30.02,29.79,9,3,11,0.00
2014-2-7,32.7,17.5,7.2,16.6,6.8,-1.4,78,63,45,29.92,29.83,15,5,23,0.00
2014-2-8,28.8,16.8,5.9,11.9,3.8,-3.4,68,56,44,29.99,29.86,13,5,17,0.00
2014-2-9,30.9,18.7,8.8,19.2,11.0,1.5,98,73,51,29.89,29.65,10,3,13,0.00
2014-2-10,34.2,19.3,10.8,23.8,12.4,1.7,97,75,52,29.92,29.64,5,1,7,0.05
2014-2-11,34.7,14.0,0.1,12.8,2.4,-9.1,82,61,35,30.23,29.91,4,1,5,0.00
2014-2-12,28.8,10.0,-8.3,9.1,-3.9,-13.6,77,54,28,30.31,30.05,11,3,14,0.00
2014-2-13,26.8,19.7,7.7,23.7,13.4,-4.1,99,78,54,30.05,28.96,10,4,17,0.00
2014-2-14,36.9,28.2,23.2,35.1,24.5,18.8,99,87,71,32.02,28.78,11,4,19,0.09
2014-2-15,40.8,28.3,18.9,30.3,23.2,15.1,97,82,66,29.53,29.41,8,3,11,0.02
2014-2-16,41.5,19.8,9.0,16.5,6.5,-7.5,92,60,27,29.79,29.45,6,2,8,0.00
2014-2-17,37.8,14.3,-0.2,5.1,-5.6,-15.3,67,41,21,30.11,29.79,5,1,6,0.00
2014-2-18,34.2,17.7,1.4,29.1,11.1,-11.1,99,75,50,30.02,29.68,8,2,11,0.03
2014-2-19,33.3,25.5,17.1,32.8,24.9,16.6,99,97,85,29.77,29.41,14,2,16,0.00
2014-2-20,47.1,39.1,33.1,34.8,33.2,26.0,99,80,59,29.87,29.67,11,4,16,0.11
2014-2-21,40.3,36.0,32.7,40.0,35.6,32.5,99,98,97,29.77,29.33,11,2,14,0.69
2014-2-22,51.1,40.5,29.7,34.8,28.3,12.1,99,66,28,29.63,29.46,21,6,36,0.01
2014-2-23,52.7,40.5,31.5,33.1,23.8,16.2,77,53,28,29.64,29.49,11,4,17,0.00
2014-2-24,32.0,25.1,17.8,19.5,11.1,3.9,66,55,43,29.68,29.50,13,4,21,0.00
2014-2-25,25.3,18.5,11.5,10.8,5.1,0.5,65,55,46,29.69,29.59,14,2,22,0.00
2014-2-26,26.4,14.7,6.8,12.7,0.7,-7.3,81,55,29,29.61,29.48,14,4,21,0.00
2014-2-27,24.6,13.3,5.7,15.6,0.0,-14.0,88,55,34,29.65,29.24,15,6,25,0.00
2014-2-28,32.7,12.0,2.8,0.4,-8.0,-13.1,57,40,21,30.13,29.65,8,2,11,0.00
2014-3-1,32.7,19.4,3.7,17.7,4.9,-6.9,64,52,38,30.12,29.73,16,5,24,0.00
2014-3-2,36.3,21.6,7.5,22.6,13.4,2.5,94,71,44,29.87,29.73,7,3,14,0.00
2014-3-3,31.8,13.2,1.6,5.4,-1.4,-8.8,86,56,24,30.04,29.79,4,1,6,0.00
2014-3-4,23.2,12.1,-2.0,13.0,1.1,-11.1,89,61,39,30.07,29.97,11,4,16,0.00
2014-3-5,25.7,15.4,4.6,14.2,8.2,-2.4,92,74,55,30.31,29.97,8,3,13,0.01
2014-3-6,40.1,15.7,-0.4,6.2,-2.3,-12.0,80,49,21,30.41,30.16,7,2,9,0.00
2014-3-7,41.2,23.7,7.3,25.5,10.8,-5.4,72,57,43,30.17,29.63,16,6,23,0.00
2014-3-8,45.9,29.5,22.1,31.5,23.4,17.7,94,78,55,29.65,29.53,8,3,11,0.00
2014-3-9,48.0,27.2,14.0,22.1,14.8,9.3,89,63,27,29.74,29.60,5,1,8,0.00
2014-3-10,42.3,36.7,23.7,32.8,29.9,14.8,99,77,61,29.57,29.21,10,4,15,0.00
2014-3-11,67.3,42.3,32.0,44.0,35.1,29.7,99,78,44,29.43,29.15,14,2,17,0.04
2014-3-12,35.6,26.3,14.7,32.8,24.8,13.8,99,94,83,29.43,29.04,14,5,19,0.00
2014-3-13,23.4,13.7,6.8,17.5,7.7,-8.2,96,78,44,29.70,29.05,14,5,20,0.00
2014-3-14,35.6,20.9,5.9,24.5,10.2,-8.3,75,63,45,29.80,29.43,17,7,24,0.00
2014-3-15,48.2,39.6,29.1,40.1,31.4,23.6,91,73,63,29.64,29.30,13,5,18,0.00
2014-3-16,35.8,20.9,7.3,25.8,6.6,-6.4,87,54,30,29.98,29.63,11,2,16,0.00
2014-3-17,36.5,15.5,-2.0,6.6,-2.5,-10.2,73,46,21,29.96,29.82,4,0,6,0.00
2014-3-18,49.5,22.4,-0.2,14.3,4.0,-8.2,75,48,21,30.05,29.90,6,1,8,0.00
2014-3-19,40.3,28.5,14.7,32.7,18.7,6.2,99,68,48,30.01,29.60,14,3,22,0.00
2014-3-20,47.1,36.8,32.0,41.3,33.3,28.0,99,88,70,29.60,29.34,13,4,22,0.41
2014-3-21,55.9,37.2,27.3,32.4,27.0,19.5,83,67,39,29.74,29.43,10,2,18,0.00
2014-3-22,49.6,33.3,23.9,37.8,26.9,19.6,87,77,61,30.12,29.33,18,4,24,27.00
2014-3-23,36.5,27.2,11.1,28.5,16.3,1.1,84,64,46,29.90,29.63,11,3,14,0.00
2014-3-24,38.7,21.0,5.2,12.3,4.4,-3.7,75,50,25,29.93,29.77,7,1,10,0.00
2014-3-25,39.9,24.7,10.2,20.5,12.5,3.3,81,60,41,29.82,29.64,11,4,17,0.00
2014-3-26,34.0,24.9,17.1,19.7,12.4,0.9,79,60,33,29.85,29.58,10,3,17,0.00
2014-3-27,36.1,25.5,9.0,24.4,10.9,-2.2,67,54,43,30.04,29.83,17,5,21,27.00
2014-3-28,42.3,37.0,30.9,42.0,34.8,23.1,99,92,61,29.97,29.57,14,6,21,0.11
2014-3-29,51.8,40.0,32.4,43.1,37.0,31.0,99,90,67,30.01,29.71,8,3,11,0.09
2014-3-30,36.7,33.7,31.3,35.9,33.3,31.0,99,98,97,29.71,29.50,12,4,15,0.74
2014-3-31,37.0,33.4,30.4,31.8,30.4,28.8,99,89,81,29.88,29.59,14,7,22,0.00
2014-4-1,56.1,39.1,29.3,40.3,30.8,24.2,89,73,52,29.89,29.71,8,3,13,0.00
2014-4-2,58.1,43.5,32.7,43.3,35.6,29.0,93,75,46,29.80,29.69,14,5,21,0.00
2014-4-3,52.5,40.1,28.2,38.0,31.5,25.4,94,72,56,29.91,29.80,8,2,11,0.00
2014-4-4,50.2,38.9,25.2,39.4,32.6,22.0,99,79,58,29.90,29.48,17,4,22,0.27
2014-4-5,47.3,38.3,34.9,43.7,34.4,27.1,99,86,69,29.70,29.41,11,5,24,0.01
2014-4-6,64.4,44.1,28.9,37.9,30.9,24.4,84,62,33,29.89,29.70,11,2,17,28.31
2014-4-7,58.6,46.6,31.5,42.6,36.4,27.7,99,69,48,29.90,29.51,17,4,25,0.07
2014-4-8,60.8,46.8,39.4,57.4,44.4,37.3,99,92,69,29.50,28.96,21,4,27,0.25
2014-4-9,56.5,43.2,30.4,42.9,31.5,17.8,99,68,27,29.69,29.28,7,2,11,0.00
2014-4-10,66.4,47.6,28.8,44.7,34.2,18.9,82,61,45,29.80,29.51,19,8,29,0.00
2014-4-11,69.4,56.2,42.3,47.7,42.5,38.0,97,62,35,29.75,29.53,12,3,21,0.00
2014-4-12,71.4,50.7,35.8,49.7,40.5,33.2,99,72,35,29.93,29.74,11,3,14,0.00
2014-4-13,73.6,55.7,40.6,59.1,48.6,36.5,99,78,60,29.92,29.55,13,3,17,0.39
2014-4-14,80.8,69.7,58.1,66.0,60.4,54.8,92,74,56,29.60,29.35,24,9,36,0.24
2014-4-15,63.5,54.1,31.8,62.1,53.0,31.6,99,96,84,29.63,29.12,14,4,18,1.14
2014-4-16,44.2,31.2,22.1,31.6,23.5,18.6,99,74,55,30.37,29.60,8,1,14,0.10
2014-4-17,53.6,38.0,23.5,32.8,26.5,20.1,91,65,41,30.50,30.30,10,3,12,0.00
2014-4-18,56.1,43.0,29.1,35.4,28.0,20.1,80,58,30,30.33,29.91,14,5,23,0.00
2014-4-19,60.3,47.7,36.5,47.3,38.0,29.7,92,70,50,30.17,29.85,10,3,14,0.00
2014-4-20,65.3,48.3,29.7,38.4,31.6,26.2,91,57,26,30.25,29.94,11,3,15,0.00
2014-4-21,76.8,58.4,45.1,47.7,40.8,33.2,71,53,34,29.95,29.48,14,6,20,0.00
2014-4-22,65.7,58.3,51.8,57.7,46.7,36.9,99,68,43,29.49,29.17,13,5,18,0.02
2014-4-23,53.6,48.1,44.2,47.1,41.0,30.6,97,77,58,29.51,29.30,8,3,13,0.01
2014-4-24,61.9,47.3,35.4,38.0,30.9,23.5,68,54,34,29.73,29.50,10,3,15,0.00
2014-4-25,66.4,49.2,32.7,39.4,31.1,22.1,87,53,21,29.79,29.46,5,1,9,0.00
2014-4-26,51.6,45.7,42.3,50.6,44.3,36.4,99,95,68,29.58,29.43,10,3,14,0.33
2014-4-27,50.4,43.1,38.1,46.0,41.8,37.9,99,95,84,29.87,29.57,8,2,13,0.06
2014-4-28,63.0,48.5,34.5,48.3,42.7,34.0,99,82,58,29.91,29.80,8,3,12,0.00
2014-4-29,61.2,50.4,42.4,45.6,42.5,37.1,96,76,51,30.17,29.91,18,6,27,0.01
2014-4-30,48.2,43.2,39.2,44.3,41.8,38.9,99,95,85,30.20,29.77,18,7,22,0.34
2014-5-1,69.4,53.4,42.4,63.7,50.4,42.2,99,90,72,29.77,29.36,11,3,14,0.24
2014-5-2,65.1,53.0,42.8,51.2,45.3,40.2,98,76,54,29.54,29.39,12,3,20,0.00
2014-5-3,64.9,52.9,46.4,53.7,49.1,42.4,99,88,65,29.56,29.38,11,2,16,0.03
2014-5-4,55.6,49.3,44.4,50.6,45.9,43.1,99,88,72,29.44,29.26,12,4,18,0.16
2014-5-5,64.9,50.3,44.6,51.6,46.0,42.7,99,86,62,29.64,29.43,6,1,10,0.00
2014-5-6,64.8,51.2,39.9,49.5,41.5,34.6,99,72,45,29.82,29.60,8,2,11,0.00
2014-5-7,72.1,53.9,36.7,47.4,40.8,31.4,87,63,39,29.99,29.81,5,1,8,0.00
2014-5-8,74.7,58.0,39.4,51.9,42.9,36.7,99,61,35,29.92,29.81,8,2,11,0.00
2014-5-9,68.2,58.6,48.9,60.8,52.3,39.9,91,80,57,29.89,29.67,13,4,16,0.02
2014-5-10,84.9,69.5,60.4,70.9,59.4,40.4,99,74,36,29.69,29.42,14,5,21,0.26
2014-5-11,82.8,67.3,54.5,53.7,48.8,44.7,74,53,32,29.76,29.56,11,2,14,0.00
2014-5-12,88.2,68.4,53.2,64.3,51.9,43.8,75,57,35,29.83,29.72,8,2,11,0.00
2014-5-13,68.7,58.3,52.5,57.7,51.5,45.7,89,78,66,29.97,29.82,10,3,14,0.00
2014-5-14,81.7,65.3,53.4,66.2,57.1,50.1,93,76,57,29.95,29.81,16,7,22,0.00
2014-5-15,78.3,67.6,27.5,71.6,64.8,23.3,99,91,79,30.12,29.78,115,5,115,18.89
2014-5-16,74.3,68.5,64.6,69.2,66.1,64.3,99,92,82,29.79,29.51,16,6,21,0.25
2014-5-17,68.5,57.9,49.5,66.0,49.9,40.8,99,77,52,29.85,29.48,13,4,18,0.41
2014-5-18,73.6,56.1,41.2,50.4,43.5,38.6,93,65,37,29.94,29.83,6,1,8,0.00
2014-5-19,73.2,58.4,43.9,50.1,44.6,39.0,85,62,41,29.90,29.78,8,2,12,0.00
2014-5-20,77.0,61.3,44.2,56.3,48.6,43.2,99,66,37,29.86,29.71,10,2,14,0.00
2014-5-21,84.6,65.6,45.7,58.1,50.4,44.4,99,63,28,29.74,29.57,7,1,8,0.00
2014-5-22,70.3,59.9,55.6,62.6,56.8,50.4,99,90,70,29.58,29.53,7,1,10,0.32
2014-5-23,72.1,60.1,55.8,64.2,58.2,55.5,99,94,74,29.70,29.55,8,1,9,0.36
2014-5-24,79.7,62.4,54.5,63.2,57.5,53.7,99,86,56,29.80,29.69,8,1,11,0.30
2014-5-25,82.6,64.7,52.5,64.3,57.3,52.0,99,80,48,29.82,29.67,10,2,14,0.00
2014-5-26,76.1,65.7,57.7,64.1,57.6,52.0,94,76,54,32.51,29.51,11,4,15,0.06
2014-5-27,83.1,66.7,56.8,70.0,60.8,54.0,98,82,62,29.59,29.39,14,3,19,0.23
2014-5-28,60.3,55.4,51.1,54.5,50.5,48.4,93,84,73,29.94,29.58,15,2,19,0.00
2014-5-29,76.3,60.8,45.5,54.6,50.4,44.7,99,72,45,29.98,29.80,10,2,13,0.00
2014-5-30,77.5,62.4,51.6,62.5,54.8,48.4,97,77,54,29.86,29.75,6,1,10,0.14
2014-5-31,74.8,59.9,48.7,58.9,53.3,48.5,99,81,56,30.04,29.85,10,2,14,0.00
2014-6-1,79.5,64.7,49.5,61.4,55.3,49.0,99,74,48,30.09,29.88,10,3,14,0.00
2014-6-2,86.0,70.2,54.1,65.6,57.3,47.8,81,65,47,29.90,29.66,13,5,19,0.00
2014-6-3,89.8,72.7,63.5,73.1,65.6,58.9,99,80,54,29.69,29.48,13,4,18,0.14
2014-6-4,79.3,70.8,61.7,67.7,59.5,48.7,99,70,51,29.58,29.44,12,3,14,0.00
2014-6-5,82.4,64.8,53.6,61.4,55.1,48.3,95,73,46,29.52,29.38,8,2,13,0.02
2014-6-6,80.1,65.1,53.6,63.1,57.1,52.8,99,78,52,29.66,29.50,5,1,11,0.02
2014-6-7,90.7,72.0,55.2,65.2,59.3,53.5,97,67,42,29.72,29.62,5,2,7,0.00
2014-6-8,89.2,72.8,56.7,66.5,60.8,55.6,99,68,45,29.69,29.56,8,2,11,0.00
2014-6-9,91.4,74.5,64.4,67.4,62.7,57.8,85,68,44,29.70,29.58,9,2,14,0.00
2014-6-10,81.7,69.7,62.2,66.1,61.7,57.0,95,77,56,29.80,29.66,8,3,10,0.00
2014-6-11,70.9,62.3,57.6,60.2,57.5,54.6,99,85,62,29.90,29.80,6,1,10,0.32
2014-6-12,63.1,60.6,57.6,62.3,59.6,56.3,99,96,91,29.83,29.68,6,2,9,0.48
2014-6-13,77.5,65.5,62.1,68.2,63.0,61.5,99,92,71,29.69,29.47,8,2,11,0.50
2014-6-14,76.8,65.7,54.5,62.5,58.2,51.0,98,79,54,29.73,29.48,8,2,14,0.07
2014-6-15,81.3,65.6,53.4,62.9,56.3,50.8,97,74,51,29.85,29.72,6,2,11,0.00
2014-6-16,82.9,68.7,52.7,61.4,56.8,52.0,99,68,45,29.90,29.71,8,2,11,0.00
2014-6-17,90.3,76.2,63.0,69.1,63.2,54.9,83,65,47,29.79,29.41,11,3,15,0.00
2014-6-18,84.4,76.7,69.3,68.7,63.2,58.8,77,63,51,29.71,29.60,6,1,9,0.09
2014-6-19,79.9,72.1,60.6,66.2,58.1,49.4,95,63,44,29.77,29.69,7,2,11,0.02
2014-6-20,74.1,64.0,53.2,52.9,49.6,46.2,83,60,46,29.77,29.69,7,2,13,0.00
2014-6-21,80.1,64.3,49.6,58.2,52.3,46.9,93,68,44,29.75,29.64,5,1,8,0.00
2014-6-22,85.6,68.0,52.2,62.5,55.8,49.4,93,68,45,29.76,29.67,6,2,8,0.00
2014-6-23,85.6,71.7,55.8,63.6,59.2,53.8,97,67,45,29.85,29.75,12,2,17,0.00
2014-6-24,79.9,71.8,67.3,66.6,62.1,58.2,84,72,64,29.80,29.62,13,5,20,0.05
2014-6-25,72.0,68.7,67.1,70.0,66.1,63.0,99,91,82,29.64,29.58,9,3,12,0.81
2014-6-26,84.0,71.7,62.1,67.4,64.5,58.7,99,80,53,29.76,29.56,7,2,11,0.03
2014-6-27,94.1,74.0,58.1,67.6,60.3,51.9,99,67,32,29.92,29.76,5,1,7,0.00
2014-6-28,90.0,73.1,57.9,66.7,60.9,55.2,97,68,38,30.02,29.92,8,3,11,0.00
2014-6-29,88.7,75.1,60.6,68.8,64.0,58.7,96,71,47,29.97,29.75,10,4,14,0.00
2014-6-30,87.8,76.3,68.9,73.0,66.4,61.0,85,72,60,29.76,29.58,10,4,17,0.00
2014-7-1,92.3,79.7,69.8,75.3,70.7,66.8,93,75,57,29.62,29.40,14,5,20,0.00
2014-7-2,93.4,76.8,69.1,76.0,70.5,67.0,96,82,51,29.64,29.47,11,4,16,0.59
2014-7-3,91.8,75.5,67.1,73.3,69.3,66.3,99,84,48,29.70,29.55,8,3,11,0.36
2014-7-4,76.5,68.5,59.4,70.9,63.6,55.2,99,85,64,29.74,29.64,7,2,12,0.01
2014-7-5,87.1,71.2,59.0,61.2,53.6,47.3,86,55,37,29.79,29.68,11,3,20,0.00
2014-7-6,86.0,74.3,61.7,62.1,57.0,52.1,76,56,42,29.73,29.55,14,4,21,0.00
2014-7-7,82.6,71.7,61.9,70.5,63.6,56.8,93,76,59,29.55,29.35,13,5,21,0.00
2014-7-8,86.5,77.7,68.5,72.7,69.8,67.4,97,78,60,29.48,29.23,13,5,18,0.03
2014-7-16,70.0,70.0,70.0,65.3,65.3,65.3,85,85,85,29.61,29.49,7,2,9,0.63
2014-7-17,70.0,70.0,70.0,65.3,65.3,65.3,85,85,85,29.82,29.60,8,2,11,0.00
2014-7-18,70.0,70.0,70.0,65.3,65.3,65.3,85,85,85,29.95,29.82,7,2,10,0.00
2014-7-19,70.0,70.0,70.0,65.3,65.3,65.3,85,85,85,29.91,29.91,1,1,2,0.00
2014-7-20,70.0,70.0,70.0,65.3,65.3,65.3,85,85,85,29.91,29.91,1,1,2,0.00
2014-7-21,87.6,72.1,70.0,65.3,64.5,61.3,85,78,47,29.91,29.82,5,1,9,0.00
2014-7-22,91.6,78.4,66.6,68.5,64.9,61.3,85,65,45,29.86,29.65,10,4,14,0.00
2014-7-23,91.8,76.6,66.9,70.9,67.0,60.2,89,74,47,29.66,29.42,13,4,21,0.54
2014-7-24,81.0,68.3,59.0,60.2,54.3,49.5,82,62,44,29.69,29.56,5,2,9,0.56
2014-7-25,87.6,69.4,55.2,62.3,56.2,51.2,90,65,41,29.74,29.62,9,3,11,0.00
2014-7-26,84.4,71.0,59.2,60.4,56.2,52.8,84,61,43,29.69,29.56,11,4,18,0.00
2014-7-27,86.4,70.9,62.4,68.1,60.8,54.3,91,72,54,29.58,29.33,9,3,14,0.58
2014-7-28,68.7,64.6,60.4,64.4,60.2,54.9,93,86,76,29.40,29.22,11,2,17,0.47
2014-7-29,82.6,66.9,56.5,59.1,54.2,50.9,89,66,42,29.69,29.39,7,1,9,0.00
2014-7-30,80.1,66.0,54.7,57.7,53.7,50.9,92,67,43,29.77,29.68,9,2,14,0.00
2014-7-31,79.3,67.2,59.2,60.6,55.8,51.1,82,67,52,29.85,29.72,12,3,22,0.22
2014-8-1,85.5,72.3,60.6,63.0,59.9,57.1,91,67,46,29.92,29.84,11,4,15,0.00
2014-8-2,86.0,73.7,64.6,63.8,60.7,58.3,85,65,47,29.92,29.79,11,3,16,0.00
2014-8-3,90.0,72.9,62.2,64.7,59.6,56.1,84,65,43,29.86,29.73,6,2,10,0.00
2014-8-4,88.7,73.8,64.8,65.2,61.9,58.9,89,69,43,29.80,29.72,4,1,7,0.39
2014-8-5,85.6,70.9,64.4,66.3,61.7,57.0,92,74,48,29.77,29.63,11,3,16,0.01
2014-8-6,83.3,71.9,61.2,63.5,57.0,48.1,88,62,41,29.66,29.58,6,1,10,0.00
2014-8-7,80.1,66.5,58.5,58.9,54.4,51.5,86,67,43,29.73,29.63,4,1,8,0.11
2014-8-8,86.4,69.2,55.4,61.8,56.3,52.2,92,67,43,29.82,29.73,4,1,6,0.01
2014-8-9,90.1,72.4,58.1,62.2,56.5,50.9,89,61,34,29.86,29.79,7,2,9,0.00
2014-8-10,93.6,73.6,58.3,62.7,56.8,51.2,86,59,33,29.90,29.81,4,1,7,0.00
2014-8-11,90.9,74.6,60.1,61.8,57.3,53.9,86,58,31,29.88,29.76,8,2,9,0.00
2014-8-12,83.8,72.0,63.1,60.0,56.0,52.3,71,58,42,29.80,29.64,13,4,21,0.00
2014-8-13,71.2,67.0,61.2,63.0,59.1,55.4,87,76,60,29.64,29.42,11,1,16,1.11
2014-8-14,76.5,63.8,56.1,58.1,48.8,44.0,88,59,42,29.60,29.43,9,3,18,0.01
2014-8-15,70.0,60.5,54.9,53.9,49.2,44.0,80,67,55,29.63,29.57,9,4,16,0.03
2014-8-16,70.7,63.3,55.6,53.6,51.3,48.9,83,65,53,29.67,29.55,12,4,17,0.00
2014-8-17,81.3,66.7,59.4,57.7,53.2,47.7,84,63,42,29.61,29.51,8,2,14,0.05
2014-8-18,81.0,66.4,55.2,53.9,50.1,46.4,74,57,38,29.65,29.57,6,1,10,0.00
2014-8-19,89.4,65.3,49.6,56.2,50.4,46.4,90,63,28,29.69,29.62,6,1,8,0.00
2014-8-20,90.9,70.7,54.9,63.7,55.7,49.0,87,61,40,29.73,29.67,8,2,11,0.00
2014-8-21,72.1,66.9,61.5,62.6,59.2,55.5,85,77,58,29.79,29.72,8,2,12,1.27
2014-8-22,65.1,62.7,61.3,57.9,57.1,56.3,86,82,76,29.86,29.76,4,0,6,0.25
2014-8-23,86.2,68.8,61.2,62.1,57.5,54.1,87,70,41,29.89,29.83,6,0,7,0.04
2014-8-24,88.5,71.2,58.3,64.7,56.9,53.1,89,64,35,29.93,29.84,5,1,8,0.00
2014-8-25,92.1,73.2,58.6,63.6,58.1,54.5,87,62,36,29.95,29.83,6,1,8,5.21
2014-8-26,88.2,74.0,61.7,62.3,57.9,54.1,83,59,39,29.89,29.70,11,4,14,0.00
2014-8-27,89.1,74.9,64.8,65.5,59.0,53.8,73,59,43,29.71,29.56,9,4,13,0.00
2014-8-28,79.0,67.4,60.6,56.2,51.9,46.2,76,59,43,29.79,29.60,6,2,8,0.00
2014-8-29,84.6,67.4,55.6,55.7,51.1,46.5,75,57,36,29.95,29.79,4,1,6,0.00
2014-8-30,81.3,68.8,58.1,57.3,53.9,50.7,82,61,44,29.95,29.76,13,5,21,0.00
2014-8-31,75.0,71.2,68.0,65.8,61.2,55.2,83,71,61,29.78,29.63,10,4,16,0.02
2014-9-1,90.3,76.7,68.2,65.3,62.8,59.6,86,65,41,29.72,29.60,8,3,15,0.03
2014-9-2,89.2,76.9,68.2,66.0,63.2,59.4,84,64,45,29.62,29.43,11,4,15,0.62
2014-9-3,89.6,73.6,62.4,64.4,56.0,49.2,85,57,33,29.82,29.48,4,2,8,0.03
2014-9-4,86.7,71.0,57.7,62.0,55.9,48.9,84,60,43,29.89,29.78,11,4,15,0.00
2014-9-5,89.6,76.2,64.4,65.1,60.7,56.1,76,60,44,29.85,29.61,11,4,17,0.00
2014-9-6,80.8,71.4,63.5,63.9,61.3,57.6,82,71,53,29.68,29.49,9,3,14,0.13
2014-9-7,85.6,67.2,52.3,58.1,50.9,46.4,82,59,33,29.98,29.68,6,1,9,0.00
2014-9-8,84.0,66.4,53.2,59.3,50.7,47.0,86,60,36,30.10,29.97,7,2,12,0.00
2014-9-9,79.3,64.7,51.8,53.4,48.5,43.9,77,57,39,30.10,29.90,8,3,13,0.00
2014-9-10,79.5,66.3,55.6,55.5,51.2,46.3,78,59,44,29.91,29.69,10,3,14,0.00
2014-9-11,79.3,68.0,59.5,61.2,53.8,46.5,72,61,46,29.72,29.42,14,4,22,0.00
2014-9-12,67.3,54.4,43.5,46.3,40.7,36.5,76,60,45,30.02,29.72,7,3,11,0.00
2014-9-13,55.0,49.7,42.4,50.6,43.3,36.4,86,79,63,30.02,29.79,8,2,11,0.14
2014-9-14,68.4,52.3,40.8,44.4,39.4,34.7,82,63,42,30.04,29.89,6,2,9,0.00
2014-9-15,70.0,55.3,42.1,45.5,41.7,37.5,88,63,39,29.98,29.79,8,2,12,0.00
2014-9-16,73.2,58.1,51.1,51.7,46.1,40.8,84,65,45,29.79,29.66,7,2,8,0.06
2014-9-17,75.0,58.5,45.7,47.6,43.2,40.2,86,59,33,29.76,29.65,8,3,11,0.00
2014-9-18,61.2,52.2,43.2,46.4,40.9,32.2,75,66,52,29.95,29.66,7,3,10,6.23
2014-9-19,65.7,49.6,35.6,37.3,33.2,27.3,75,55,32,30.14,29.95,7,2,9,0.00
2014-9-20,70.2,58.1,44.8,53.2,45.2,33.9,69,62,54,30.02,29.70,12,5,19,0.00
2014-9-21,84.4,70.4,60.8,58.4,54.1,50.1,75,58,39,29.70,29.26,15,6,22,0.03
2014-9-22,66.4,57.9,44.8,55.6,43.5,34.0,81,60,41,29.85,29.27,11,3,21,0.04
2014-9-23,74.3,55.7,43.0,51.2,41.8,34.1,72,60,42,30.15,29.85,9,2,14,0.00
2014-9-24,80.8,61.6,47.5,51.7,47.3,43.1,89,63,35,30.32,30.15,8,2,11,0.00
2014-9-25,77.9,60.1,49.3,53.2,46.6,41.9,82,63,39,30.25,29.99,6,2,8,6.30
2014-9-26,87.8,63.5,46.2,57.1,50.2,42.9,89,66,34,30.02,29.90,4,1,8,0.00
2014-9-27,88.7,66.9,51.4,60.0,53.3,47.4,88,65,37,29.98,29.89,4,1,6,0.00
2014-9-28,89.2,68.3,54.7,61.4,55.5,50.9,88,67,38,29.92,29.72,8,2,9,6.30
2014-9-29,82.9,65.6,55.6,57.8,52.1,46.3,83,64,41,29.74,29.64,4,1,7,0.00
2014-9-30,77.5,63.1,52.0,55.0,49.8,45.0,80,63,45,29.76,29.66,8,2,14,0.00
2014-10-1,73.8,59.2,54.9,52.7,49.4,47.7,85,71,47,29.89,29.76,4,2,9,0.00
2014-10-2,82.6,63.3,55.9,55.5,50.5,47.3,81,65,37,29.93,29.80,4,1,7,0.00
2014-10-3,76.3,62.8,54.0,51.2,47.6,42.3,85,60,39,29.84,29.53,13,4,16,0.00
2014-10-4,58.1,55.3,51.6,53.0,47.4,39.5,87,75,62,29.53,29.26,6,2,11,0.79
2014-10-5,65.7,52.6,43.3,43.7,37.9,32.7,81,59,35,29.66,29.34,11,2,14,0.00
2014-10-6,69.1,53.3,39.4,45.1,38.9,33.1,85,60,39,29.76,29.65,13,4,21,0.00
2014-10-7,73.0,60.8,53.8,52.3,46.4,41.0,82,60,43,29.74,29.58,14,4,23,0.21
2014-10-8,73.8,59.3,51.1,53.3,44.5,35.7,85,59,38,29.60,29.32,14,4,20,0.16
2014-10-9,65.1,52.8,46.8,39.5,35.6,32.6,64,52,38,29.71,29.57,12,3,20,0.00
2014-10-10,66.6,51.5,42.1,42.2,35.6,30.7,66,55,39,29.85,29.70,8,2,12,0.00
2014-10-11,68.9,48.9,40.8,42.0,36.7,32.0,83,64,36,29.89,29.78,4,1,5,0.00
2014-10-12,69.1,49.4,35.6,41.0,36.1,31.3,90,64,33,30.04,29.88,5,1,7,0.00
2014-10-13,64.0,49.5,36.9,46.5,38.5,30.0,82,67,51,30.02,29.91,8,4,14,0.00
2014-10-14,80.4,67.2,58.1,57.7,52.4,46.4,74,60,45,29.92,29.75,16,5,20,0.00
2014-10-15,68.7,67.5,66.6,56.0,55.3,52.0,67,65,56,29.78,29.73,6,4,9,0.01
2014-10-21,51.6,48.9,46.8,45.0,43.6,40.6,85,82,77,29.81,29.67,5,2,8,1.14
2014-10-22,51.3,48.2,45.7,43.0,40.4,35.9,85,75,61,29.90,29.73,11,5,21,0.05
2014-10-23,49.1,45.1,43.9,40.9,37.9,33.6,86,76,62,29.74,29.56,12,6,18,1.69
2014-10-24,49.3,45.5,42.6,40.3,38.5,35.4,87,77,64,29.59,29.48,8,3,12,0.11
2014-10-25,61.7,50.2,42.1,44.1,41.2,35.8,93,73,48,29.55,29.18,10,4,13,0.00
2014-10-26,57.2,50.2,45.0,41.2,37.2,33.5,72,61,49,29.44,29.14,8,1,12,0.05
2014-10-27,67.8,52.1,42.1,41.1,38.1,34.7,82,62,37,29.68,29.44,7,1,8,0.01
2014-10-28,67.6,42.9,42.8,41.1,36.4,36.4,78,78,38,29.67,29.67,9,4,14,0.01
2014-10-29,42.8,42.8,42.8,36.4,36.4,36.4,78,78,78,29.67,29.67,6,2,8,0.00
2014-10-30,42.8,42.8,42.8,36.4,36.4,36.4,78,78,78,29.67,29.67,2,2,4,0.00
2014-10-31,42.8,42.8,42.8,36.4,36.4,36.4,78,78,78,29.67,29.67,2,2,4,0.00
2014-11-1,42.8,42.8,42.8,36.4,36.4,36.4,78,78,78,29.67,29.67,2,2,4,0.00
2014-11-2,42.8,42.8,42.8,36.4,36.4,36.4,78,78,78,29.67,29.67,2,2,4,0.00
2014-11-3,42.8,42.8,42.8,36.4,36.4,36.4,78,78,78,29.67,29.67,2,2,4,0.00
2014-11-4,42.8,42.8,42.8,36.4,36.4,36.4,78,78,78,29.67,29.67,2,2,4,0.00
2014-11-5,42.8,42.8,42.8,36.4,36.4,36.4,78,78,78,29.67,29.67,2,2,4,0.00
2014-11-8,41.3,41.3,41.3,31.5,31.5,31.5,38,38,38,29.97,29.97,1,1,0,0.00
2014-11-9,41.3,41.3,41.3,31.5,31.5,31.5,38,38,38,29.97,29.97,1,1,0,0.00
2014-11-10,41.3,41.3,41.3,31.5,31.5,31.5,38,38,38,29.97,29.97,1,1,0,0.00
2014-11-11,41.3,41.3,41.3,31.5,31.5,31.5,38,38,38,29.97,29.97,1,1,0,0.00
2014-11-12,41.3,41.3,41.3,31.5,31.5,31.5,38,38,38,29.97,29.97,1,1,0,0.00
2014-11-13,41.3,41.3,41.3,31.5,31.5,31.5,38,38,38,29.97,29.97,1,1,0,0.00
2014-11-14,41.3,41.3,41.3,31.5,31.5,31.5,38,38,38,29.97,29.97,1,1,0,0.00
2014-11-15,41.3,41.3,41.3,31.5,31.5,31.5,38,38,38,29.97,29.97,1,1,0,0.00
2014-11-16,41.3,41.3,41.3,31.5,31.5,31.5,38,38,38,29.97,29.97,1,1,0,0.00
2014-11-17,41.3,41.3,41.3,31.5,31.5,31.5,38,38,38,29.97,29.97,1,1,0,0.00
2014-11-18,41.3,41.3,41.3,31.5,31.5,31.5,38,38,38,29.97,29.97,1,1,0,0.00
2014-11-19,41.3,41.3,41.3,31.5,31.5,31.5,38,38,38,29.97,29.97,1,1,0,0.00
2014-11-20,41.3,41.3,41.3,31.5,31.5,31.5,38,38,38,29.97,29.97,1,1,0,0.00
2014-11-21,41.3,41.3,41.3,31.5,31.5,31.5,38,38,38,29.97,29.97,1,1,0,0.00
2014-11-22,41.3,38.3,33.8,31.5,23.2,10.9,38,38,38,29.97,29.97,10,5,15,0.00
2014-11-23,33.8,33.8,33.8,10.9,10.9,10.9,38,38,38,29.97,29.97,10,10,15,0.00
2014-11-24,33.8,33.8,33.8,10.9,10.9,10.9,38,38,38,29.97,29.97,10,10,15,0.00
2014-11-25,33.8,33.8,33.8,10.9,10.9,10.9,38,38,38,29.97,29.97,10,10,15,0.00
2014-11-26,33.8,33.8,33.8,10.9,10.9,10.9,38,38,38,29.97,29.97,10,10,15,0.00
2014-11-27,33.8,33.8,33.8,10.9,10.9,10.9,38,38,38,29.97,29.97,10,10,15,0.00
2014-11-28,33.8,33.8,33.8,10.9,10.9,10.9,38,38,38,29.97,29.97,10,10,15,0.00
2014-11-29,33.8,33.8,33.8,10.9,10.9,10.9,38,38,38,29.97,29.97,10,10,15,0.00
2014-11-30,33.8,33.8,33.8,10.9,10.9,10.9,38,38,38,29.97,29.97,10,10,15,0.00